Location: LDNL
(36.4545°S, 141.6685°E)
Time: 04:32:27
(UTC+11:00)

Vanguard 2 - Pass Details

Date: 11 August 2022
Orbit: 552 x 2934 km, 32.9° (Epoch: 06 October)

Event Time Altitude Azimuth Distance (km) Brightness Sun altitude
Rises 23:21:43 0° 261° (W) 4,948 12.0 -62.7°
Enters shadow 23:24:13 - 266° (W) 4,113 11.5 -63.0°
Reaches altitude 10° 23:26:01 10° 270° (W) 3,518 - -63.3°
Maximum altitude 23:32:57 29° 326° (NW) 1,755 - -64.2°
Drops below altitude 10° 23:37:40 10° 26° (NNE) 2,336 - -64.8°
Sets 23:39:57 0° 38° (NE) 3,065 - -65.0°
